Total_Precipitation_Accumulation
0.01 0.01 0.04 0.06 0.06 0.09 0.20 0.30 0.38 0.36 0.32 0.27 0.17 0.12 0.11 0.10 0.10 0.10 0.11 0.13 0.25 0.28 0.25 0.19 0.20 0.24 0.24 0.23 0.26 0.30 0.35 0.40 0.42 0.45 0.50 0.48 0.37 0.37 0.46 0.52 0.42 0.46 0.22
0.00 0.00 0.05 0.09 0.07 0.06 0.14 0.24 0.36 0.39 0.44 0.31 0.20 0.16 0.15 0.11 0.10 0.10 0.07 0.08 0.15 0.18 0.16 0.16 0.21 0.24 0.26 0.28 0.34 0.42 0.40 0.37 0.45 0.50 0.52 0.47 0.43 0.42 0.39 0.44 0.38 0.39 0.24
0.00 0.01 0.06 0.11 0.09 0.07 0.15 0.25 0.34 0.38 0.47 0.36 0.27 0.20 0.14 0.09 0.12 0.13 0.08 0.11 0.17 0.12 0.08 0.14 0.25 0.29 0.32 0.36 0.42 0.48 0.46 0.41 0.44 0.51 0.61 0.75 0.48 0.40 0.38 0.36 0.36 0.29 0.28
0.00 0.02 0.08 0.11 0.09 0.11 0.18 0.26 0.33 0.38 0.47 0.40 0.28 0.16 0.08 0.09 0.13 0.14 0.24 0.32 0.22 0.09 0.07 0.13 0.25 0.29 0.29 0.34 0.40 0.40 0.40 0.38 0.40 0.43 0.57 0.75 0.65 0.42 0.41 0.41 0.39 0.28 0.26
0.00 0.04 0.11 0.12 0.09 0.12 0.20 0.33 0.37 0.44 0.47 0.39 0.27 0.12 0.08 0.11 0.16 0.25 0.36 0.31 0.14 0.06 0.06 0.10 0.20 0.24 0.21 0.22 0.31 0.35 0.36 0.41 0.47 0.49 0.64 0.79 0.79 0.53 0.43 0.39 0.33 0.25 0.27
0.00 0.02 0.09 0.13 0.09 0.12 0.25 0.41 0.42 0.45 0.49 0.44 0.27 0.14 0.11 0.14 0.15 0.21 0.29 0.25 0.11 0.03 0.03 0.07 0.16 0.20 0.19 0.18 0.24 0.31 0.35 0.43 0.45 0.49 0.67 0.72 0.77 0.49 0.38 0.40 0.41 0.35 0.30
0.00 0.02 0.06 0.11 0.10 0.14 0.29 0.40 0.43 0.48 0.49 0.44 0.26 0.18 0.17 0.16 0.12 0.17 0.20 0.18 0.06 0.02 0.02 0.04 0.11 0.15 0.15 0.16 0.19 0.24 0.29 0.29 0.31 0.43 0.59 0.70 0.63 0.43 0.36 0.48 0.55 0.40 0.31
0.00 0.01 0.04 0.10 0.13 0.17 0.26 0.33 0.37 0.44 0.47 0.42 0.25 0.21 0.20 0.18 0.15 0.15 0.16 0.12 0.04 0.02 0.02 0.03 0.06 0.09 0.10 0.13 0.16 0.20 0.21 0.19 0.22 0.30 0.40 0.56 0.56 0.45 0.37 0.48 0.58 0.49 0.41
0.01 0.01 0.04 0.07 0.08 0.17 0.25 0.30 0.31 0.36 0.40 0.41 0.27 0.21 0.21 0.17 0.12 0.10 0.09 0.04 0.01 0.01 0.01 0.02 0.03 0.03 0.05 0.11 0.14 0.17 0.15 0.14 0.16 0.19 0.23 0.38 0.46 0.40 0.30 0.37 0.45 0.44 0.45
0.02 0.01 0.01 0.03 0.05 0.09 0.13 0.21 0.29 0.32 0.34 0.39 0.30 0.22 0.19 0.11 0.07 0.07 0.03 0.02 0.00 0.00 0.00 0.01 0.01 0.01 0.04 0.10 0.11 0.10 0.11 0.11 0.13 0.13 0.17 0.24 0.34 0.30 0.23 0.24 0.27 0.30 0.31
0.01 0.00 0.00 0.01 0.02 0.05 0.09 0.11 0.23 0.29 0.32 0.36 0.31 0.26 0.20 0.18 0.10 0.05 0.03 0.03 0.01 0.01 0.01 0.02 0.03 0.03 0.03 0.07 0.06 0.05 0.06 0.11 0.12 0.13 0.14 0.19 0.24 0.23 0.21 0.16 0.17 0.20 0.23
0.00 0.00 0.01 0.00 0.00 0.01 0.05 0.16 0.26 0.25 0.18 0.22 0.37 0.33 0.23 0.24 0.18 0.04 0.02 0.03 0.03 0.02 0.01 0.03 0.04 0.02 0.01 0.01 0.01 0.02 0.03 0.08 0.12 0.13 0.13 0.21 0.21 0.15 0.12 0.11 0.09 0.11 0.14
0.00 0.00 0.01 0.00 0.00 0.01 0.08 0.18 0.29 0.39 0.35 0.30 0.30 0.27 0.20 0.11 0.03 0.02 0.04 0.05 0.05 0.04 0.02 0.02 0.01 0.00 0.00 0.00 0.00 0.01 0.03 0.04 0.09 0.11 0.13 0.27 0.30 0.22 0.13 0.09 0.06 0.06 0.09
0.01 0.01 0.01 0.00 0.01 0.01 0.01 0.05 0.13 0.20 0.28 0.30 0.16 0.12 0.08 0.05 0.04 0.02 0.03 0.05 0.05 0.05 0.03 0.00 0.00 0.00 0.00 0.01 0.03 0.05 0.04 0.04 0.11 0.16 0.20 0.37 0.49 0.32 0.19 0.14 0.11 0.10 0.10
0.02 0.02 0.03 0.03 0.04 0.04 0.03 0.02 0.03 0.09 0.18 0.23 0.19 0.12 0.07 0.03 0.04 0.02 0.01 0.02 0.02 0.02 0.01 0.00 0.00 0.00 0.00 0.01 0.04 0.06 0.05 0.06 0.13 0.16 0.26 0.45 0.68 0.68 0.44 0.28 0.17 0.13 0.14
0.07 0.09 0.08 0.07 0.08 0.06 0.03 0.01 0.01 0.05 0.11 0.17 0.18 0.11 0.08 0.03 0.04 0.02 0.02 0.02 0.01 0.02 0.03 0.01 0.00 0.00 0.00 0.00 0.02 0.03 0.03 0.04 0.08 0.13 0.28 0.43 0.53 0.61 0.68 0.58 0.41 0.30 0.21
0.10 0.11 0.08 0.06 0.05 0.05 0.05 0.04 0.02 0.02 0.05 0.12 0.15 0.11 0.08 0.03 0.03 0.03 0.03 0.05 0.05 0.02 0.01 0.01 0.02 0.01 0.00 0.01 0.01 0.01 0.01 0.02 0.03 0.07 0.13 0.24 0.24 0.24 0.40 0.55 0.55 0.47 0.37
0.13 0.12 0.10 0.08 0.07 0.06 0.07 0.07 0.08 0.07 0.11 0.19 0.19 0.16 0.15 0.06 0.05 0.06 0.08 0.11 0.13 0.05 0.02 0.03 0.04 0.02 0.02 0.01 0.01 0.01 0.00 0.00 0.01 0.02 0.04 0.07 0.09 0.10 0.16 0.18 0.20 0.24 0.35
0.18 0.16 0.16 0.16 0.14 0.12 0.12 0.14 0.17 0.21 0.27 0.39 0.37 0.36 0.35 0.20 0.15 0.17 0.22 0.21 0.18 0.15 0.11 0.07 0.06 0.05 0.05 0.04 0.02 0.02 0.00 0.00 0.01 0.01 0.02 0.03 0.03 0.05 0.09 0.04 0.03 0.03 0.05
0.21 0.21 0.23 0.28 0.32 0.35 0.42 0.56 0.66 0.69 0.84 1.05 0.96 0.78 0.57 0.41 0.37 0.42 0.45 0.39 0.32 0.35 0.38 0.19 0.17 0.14 0.11 0.07 0.04 0.03 0.02 0.01 0.01 0.01 0.02 0.01 0.01 0.01 0.02 0.01 0.01 0.01 0.01
0.17 0.19 0.25 0.28 0.35 0.42 0.59 0.86 1.21 1.36 1.35 1.30 1.30 1.12 0.88 0.66 0.68 0.79 0.76 0.71 0.63 0.64 0.59 0.45 0.44 0.36 0.23 0.11 0.14 0.14 0.07 0.03 0.02 0.01 0.01 0.01 0.02 0.01 0.01 0.00 0.00 0.01 0.01
0.12 0.13 0.21 0.26 0.33 0.45 0.66 0.94 1.25 1.47 1.42 1.35 1.31 1.24 1.10 0.95 0.92 0.96 1.07 1.10 1.01 1.06 1.01 0.85 0.88 0.81 0.54 0.32 0.38 0.47 0.29 0.15 0.05 0.02 0.02 0.02 0.01 0.01 0.01 0.00 0.00 0.00 0.01
0.10 0.10 0.15 0.20 0.34 0.58 0.88 1.17 1.32 1.52 1.57 1.56 1.45 1.40 1.32 1.19 1.07 1.07 1.16 1.22 1.15 1.18 1.23 1.24 1.17 1.12 0.91 0.60 0.45 0.52 0.50 0.42 0.22 0.07 0.03 0.03 0.02 0.02 0.01 0.01 0.00 0.00 0.00
0.06 0.08 0.11 0.17 0.36 0.67 0.98 1.21 1.43 1.72 1.79 1.65 1.56 1.50 1.41 1.31 1.22 1.22 1.22 1.30 1.23 1.15 1.20 1.25 1.17 1.22 1.19 0.92 0.68 0.51 0.42 0.40 0.32 0.20 0.08 0.05 0.06 0.04 0.03 0.01 0.01 0.00 0.00
0.07 0.08 0.14 0.27 0.45 0.68 0.88 1.12 1.44 1.65 1.73 1.73 1.58 1.53 1.46 1.41 1.35 1.28 1.26 1.33 1.28 1.18 1.12 1.26 1.28 1.32 1.25 1.16 0.99 0.84 0.71 0.59 0.36 0.32 0.27 0.13 0.07 0.06 0.05 0.04 0.03 0.01 0.00
0.13 0.17 0.24 0.38 0.53 0.71 0.88 1.06 1.21 1.42 1.55 1.63 1.60 1.52 1.46 1.40 1.41 1.27 1.14 1.17 1.14 1.10 1.09 1.20 1.29 1.36 1.32 1.33 1.18 0.94 0.83 0.72 0.55 0.48 0.40 0.29 0.17 0.07 0.06 0.05 0.05 0.04 0.01